Regional Weather Roundup
Issued by NWS

Home | Current Version | Previous Version | Graphics & Text | Print | Product List | Glossary Off
Versions: 1 2 3 4 5 6 7 8 9 10 11 12 13 14 15 16 17 18 19 20 21 22 23 24 25 26 27 28 29 30 31 32 33 34 35 36 37 38 39 40 41 42 43 44 45 46 47 48 49 50

000
ASUS43 KLSX 221607
RWRMO

WEATHER SUMMARY FOR MISSOURI
NATIONAL WEATHER SERVICE SPRINGFIELD MO
1000 AM CST SUN JAN 22 2017

NOTE: "FAIR" INDICATES FEW OR NO CLOUDS BELOW 12,000 FEET WITH NO
       SIGNIFICANT WEATHER AND/OR OBSTRUCTIONS TO VISIBILITY.
       CURRENT SKY AND/OR WEATHER CONDITIONS ARE NOT AVAILABLE FOR
       CHILLICOTHE AND FARMINGTON.

MOZ001>031-035>038-043-044-053-054-221700-
...NORTHERN AND WESTERN MISSOURI...

CITY           SKY/WX    TMP DP  RH WIND       PRES   REMARKS
KANSAS CTY INT CLOUDY    41  34  76 N13       29.70R
KANSAS C DTWN  CLOUDY    45  40  82 N9        29.70R
LEE`S SUMMIT   CLOUDY    44  42  93 N7        29.68R
ST JOSEPH      CLOUDY    33  32  96 N12       29.75R WCI  24
CHILLICOTHE      N/A     36  35  96 N7        29.71R
KIRKSVILLE     CLOUDY    38  38 100 N10       29.67R FOG

$$
MOZ066>068-077>081-088>096-101>105-221700-
...SOUTHWEST MISSOURI...

CITY           SKY/WX    TMP DP  RH WIND       PRES   REMARKS
SPRINGFIELD    CLOUDY    49  46  90 NE16      29.49R
JOPLIN         RAIN      47  47 100 N18G28    29.54R FOG
BRANSON        LGT RAIN  50  50 100 NE9       29.44R VSB 1

$$
MOZ032>034-039>042-045>050-055>058-069>072-221700-
...CENTRAL MISSOURI...

CITY           SKY/WX    TMP DP  RH WIND       PRES   REMARKS
COLUMBIA       CLOUDY    45  41  86 N16       29.59R
JEFFERSON CITY CLOUDY    46  40  79 N9        29.58R
ROLLA          CLOUDY    46  45  96 N16       29.51R FOG
SEDALIA        LGT RAIN  45  43  93 N17       29.62R
WHITEMAN AFB   LGT RAIN  44  44 100 N14       29.62R FOG
WARRENSBURG    DRIZZLE   43  43 100 N12       29.65R
OSAGE BEACH    RAIN      46  43  89 N5        29.56R

$$
MOZ051-052-059>065-221700-
...EAST CENTRAL MISSOURI...

CITY           SKY/WX    TMP DP  RH WIND       PRES   REMARKS
ST LOUIS INTL  CLOUDY    49  43  80 N14       29.53S
SPIRIT OF STL  CLOUDY    48  44  86 N7        29.54R
ST CHARLES     CLOUDY    48  44  86 N15       29.54R

$$
MOZ072>076-082>087-097>100-106>115-221700-
...SOUTH CENTRAL AND SOUTHEAST MISSOURI...

CITY           SKY/WX    TMP DP  RH WIND       PRES   REMARKS
CAPE GIRARDEAU PTSUNNY   57  50  77 NE3       29.45R
FARMINGTON     CLOUDY    51  50  96 NE10      29.48S
POPLAR BLUFF   CLOUDY    57  53  86 CALM      29.43S
WEST PLAINS    LGT RAIN  54  53  97 N8        29.45R

$$



USA.gov is the U.S. government's official web portal to all federal, state and local government web resources and services.